Home > Time Zones > World Clock > Weather > Japan > Naha > Past weeks

Flag for Japan Weather past 2 weeks in Naha, Okinawa, Japan

Now
84 °F

Passing clouds.


Feels Like: 96 °F
Forecast: 83 / 90 °F
Wind: 15 mph from South

Location: Naha Airport

Current Time: Jul 24, 2014 at 1:06:50 AM

Latest Report: Jul 24, 2014 at 12:30 AM


Visibility: N/A

Pressure: 29.74 "Hg

Humidity: 84%

Dew point: 79 °F

Location of NahaLocation

Historic Weather in Naha — Graph

°F

Naha temperature yesterday

Maximum temperature yesterday: 90 °F (at 11:00 AM)
Minimum temperature yesterday: 84 °F (at 12:00 AM)
Average temperature yesterday: 87 °F

Past Weeks' High & Low Weather Summary

 TemperatureHumidityPressure
High91 °F (Jul 20, 1:30 PM)100% (Jul 9, 5:47 AM)29.95 "Hg (Jul 9, 5:47 AM)
Low75 °F (Jul 9, 7:30 AM)55% (Jul 20, 4:00 PM)29.30 "Hg (Jul 8, 11:00 PM)
Average84 °F80%29.80 "Hg
* Reported Jul 8 11:00 PM — Jul 23 11:45 PM, Naha, Weather by CustomWeather, © 2014

Note: Actual official high and low records may vary slightly from our data, if they occured in-between our weather recording intervals... More about our weather records

Advertising

Naha weather history for previous 24 hours

 ConditionsComfort  
Time TempWeatherWind HumidityBarometerVisibility
11:45 PM
Jul 23
84 °FRain showers. Passing clouds.15 mph84%29.77 "Hg2 mi
11:30 PM84 °FScattered showers. Passing clouds.13 mph79%29.77 "HgN/A
11:00 PM84 °FScattered showers. Passing clouds.14 mph79%29.77 "HgN/A
10:30 PM84 °FSprinkles. Passing clouds.15 mph79%29.77 "HgN/A
10:00 PM84 °FScattered showers. Passing clouds.14 mph79%29.77 "HgN/A
8:00 PM86 °FPassing clouds.15 mph75%29.74 "HgN/A
7:30 PM86 °FPassing clouds.17 mph75%29.74 "HgN/A
7:00 PM86 °FScattered showers. Partly sunny.20 mph75%29.74 "HgN/A
6:30 PM86 °FScattered showers. Broken clouds.18 mph75%29.71 "HgN/A
6:00 PM88 °FBroken clouds.18 mph70%29.71 "HgN/A
5:00 PM88 °FBroken clouds.21 mph70%29.71 "HgN/A
3:00 PM88 °FPartly sunny.20 mph70%29.71 "HgN/A
2:30 PM90 °FBroken clouds.21 mph71%29.71 "HgN/A
2:00 PM90 °FPartly sunny.23 mph67%29.74 "HgN/A
1:30 PM90 °FBroken clouds.21 mph67%29.74 "HgN/A
1:00 PM88 °FPartly sunny.22 mph70%29.74 "HgN/A
12:30 PM88 °FPartly sunny.22 mph70%29.74 "HgN/A
12:00 PM88 °FBroken clouds.21 mph70%29.74 "HgN/A
11:30 AM90 °FPartly sunny.18 mph67%29.74 "HgN/A
11:00 AM90 °FPartly sunny.22 mph63%29.74 "HgN/A
10:30 AM88 °FBroken clouds.21 mph75%29.74 "HgN/A
10:00 AM88 °FScattered showers. Broken clouds.23 mph70%29.74 "HgN/A
9:30 AM88 °FScattered showers. Broken clouds.22 mph70%29.74 "HgN/A
9:00 AM88 °FSprinkles. Broken clouds.20 mph70%29.74 "HgN/A
8:00 AM86 °FPartly sunny.17 mph75%29.74 "HgN/A
2:00 AM84 °FPassing clouds.16 mph79%29.74 "HgN/A
1:30 AM84 °FPassing clouds.14 mph79%29.74 "HgN/A
1:00 AM84 °FPartly cloudy.16 mph79%29.74 "HgN/A
Weather by CustomWeather, © 2014

See weather overviewHow to use our weather pages